BAW506 EGLL-LPPT

Flight info

Callsign BAW506
Flight time 2h 14m
Altitude 37000
Route GASGU2J GASGU N866 SAM M195 LORKU DCT POZOF DCT BALDA DCT ABUPI DCT XAMAX XAMAX3B
Aircraft A21N/M-SDE2E3FGHIJ1RWXY/LB1

Departure

Time 2026-05-07 15:31
Airport London Heathrow Airport (EGLL)

Arrival

Time 2026-05-07 17:45
Airport Lisbon Humberto Delgado Airport (LPPT)
Time Latitude Longitude Altitude Speed Heading
2026-05-07 15:01 51.46826 -0.48822 92 ft 0 kts 180°
2026-05-07 15:23 51.46834 -0.48822 92 ft 4 kts 180°
2026-05-07 15:23 51.46857 -0.48822 92 ft 2 kts 180°
2026-05-07 15:23 51.46874 -0.48826 92 ft 4 kts 113°
2026-05-07 15:24 51.46876 -0.48863 92 ft 4 kts 90°
2026-05-07 15:24 51.46876 -0.48882 92 ft 1 kts 90°
2026-05-07 15:28 51.46876 -0.48874 92 ft 2 kts 90°
2026-05-07 15:28 51.46876 -0.48834 95 ft 5 kts 90°
2026-05-07 15:28 51.46873 -0.48769 92 ft 7 kts 118°
2026-05-07 15:28 51.46819 -0.48752 94 ft 9 kts 179°
2026-05-07 15:29 51.46746 -0.48751 92 ft 12 kts 180°
2026-05-07 15:29 51.46659 -0.48750 92 ft 14 kts 180°
2026-05-07 15:29 51.46597 -0.48769 94 ft 10 kts 198°
2026-05-07 15:29 51.46522 -0.48790 92 ft 12 kts 165°
2026-05-07 15:30 51.46476 -0.48672 96 ft 15 kts 89°
2026-05-07 15:30 51.46480 -0.48307 94 ft 64 kts 90°
2026-05-07 15:30 51.46481 -0.47249 92 ft 124 kts 90°
2026-05-07 15:30 51.46490 -0.45599 144 ft 162 kts 89°
2026-05-07 15:31 51.46504 -0.43861 802 ft 158 kts 88°
2026-05-07 15:31 51.46533 -0.42022 1256 ft 171 kts 89°
2026-05-07 15:31 51.46374 -0.40062 1689 ft 185 kts 113°
2026-05-07 15:31 51.45484 -0.38504 2179 ft 202 kts 147°
2026-05-07 15:32 51.44392 -0.36963 2873 ft 220 kts 127°
2026-05-07 15:32 51.43462 -0.34808 3347 ft 248 kts 126°
2026-05-07 15:32 51.42134 -0.32985 4072 ft 259 kts 156°
2026-05-07 15:32 51.40385 -0.32394 5033 ft 260 kts 184°
2026-05-07 15:33 51.38641 -0.33134 5987 ft 263 kts 208°
2026-05-07 15:33 51.37171 -0.34914 6873 ft 268 kts 222°
2026-05-07 15:33 51.35808 -0.36965 7838 ft 270 kts 223°
2026-05-07 15:33 51.34452 -0.39063 8832 ft 272 kts 222°
2026-05-07 15:34 51.33035 -0.41097 9799 ft 277 kts 220°
2026-05-07 15:34 51.31532 -0.43089 10524 ft 290 kts 217°
2026-05-07 15:34 51.30166 -0.45603 10881 ft 315 kts 241°
2026-05-07 15:34 51.29435 -0.49044 11246 ft 338 kts 254°
2026-05-07 15:35 51.28873 -0.52758 11931 ft 348 kts 255°
2026-05-07 15:35 51.28278 -0.56524 12777 ft 352 kts 254°
2026-05-07 15:35 51.27615 -0.60309 13636 ft 356 kts 252°
2026-05-07 15:35 51.26892 -0.64111 14418 ft 360 kts 251°
2026-05-07 15:36 51.26148 -0.67949 15192 ft 363 kts 251°
2026-05-07 15:36 51.25398 -0.71804 15956 ft 366 kts 251°
2026-05-07 15:36 51.24639 -0.75691 16717 ft 368 kts 252°
2026-05-07 15:36 51.23875 -0.79612 17455 ft 371 kts 252°
2026-05-07 15:37 51.23105 -0.83547 18172 ft 374 kts 252°
2026-05-07 15:37 51.22325 -0.87525 18802 ft 377 kts 252°
2026-05-07 15:37 51.21541 -0.91521 19398 ft 379 kts 252°
2026-05-07 15:37 51.20531 -0.95418 19978 ft 382 kts 240°
2026-05-07 15:38 51.19466 -0.97870 20370 ft 384 kts 230°
2026-05-07 15:38 51.17596 -1.00920 20943 ft 387 kts 224°
2026-05-07 15:38 51.15631 -1.03878 21515 ft 390 kts 224°
2026-05-07 15:38 51.13826 -1.06594 22044 ft 393 kts 224°
2026-05-07 15:39 51.11850 -1.09591 22607 ft 396 kts 224°
2026-05-07 15:39 51.09856 -1.12631 23170 ft 399 kts 224°
2026-05-07 15:39 51.07984 -1.15493 23689 ft 402 kts 224°
2026-05-07 15:39 51.05936 -1.18631 24165 ft 405 kts 225°
2026-05-07 15:40 51.03898 -1.21749 24649 ft 408 kts 224°
2026-05-07 15:40 51.01848 -1.24879 25143 ft 410 kts 224°
2026-05-07 15:40 50.99785 -1.28025 25619 ft 412 kts 224°
2026-05-07 15:40 50.97739 -1.31141 26083 ft 415 kts 224°
2026-05-07 15:41 50.95578 -1.34296 26532 ft 418 kts 220°
2026-05-07 15:41 50.93241 -1.36954 26969 ft 421 kts 215°
2026-05-07 15:41 50.90783 -1.39513 27410 ft 423 kts 214°
2026-05-07 15:41 50.88304 -1.42066 27821 ft 426 kts 214°
2026-05-07 15:42 50.85812 -1.44640 28230 ft 428 kts 214°
2026-05-07 15:42 50.83313 -1.47229 28643 ft 431 kts 214°
2026-05-07 15:42 50.80803 -1.49831 29036 ft 433 kts 214°
2026-05-07 15:42 50.78274 -1.52450 29411 ft 435 kts 214°
2026-05-07 15:43 50.75735 -1.55077 29804 ft 437 kts 214°
2026-05-07 15:43 50.73194 -1.57701 30286 ft 436 kts 214°
2026-05-07 15:43 50.70660 -1.60317 30741 ft 434 kts 214°
2026-05-07 15:43 50.68140 -1.62918 31173 ft 433 kts 214°
2026-05-07 15:44 50.65620 -1.65513 31596 ft 431 kts 214°
2026-05-07 15:44 50.63112 -1.68089 32040 ft 429 kts 214°
2026-05-07 15:44 50.60617 -1.70648 32449 ft 428 kts 214°
2026-05-07 15:44 50.58123 -1.73204 32854 ft 427 kts 214°
2026-05-07 15:45 50.55639 -1.75750 33256 ft 425 kts 214°
2026-05-07 15:45 50.53160 -1.78286 33637 ft 424 kts 214°
2026-05-07 15:45 50.50694 -1.80807 34005 ft 423 kts 214°
2026-05-07 15:45 50.48226 -1.83323 34285 ft 423 kts 214°
2026-05-07 15:46 50.43288 -1.88353 34737 ft 424 kts 214°
2026-05-07 15:46 50.40814 -1.90867 34952 ft 424 kts 214°
2026-05-07 15:46 50.38332 -1.93386 35182 ft 425 kts 213°
2026-05-07 15:47 50.35851 -1.95901 35393 ft 425 kts 213°
2026-05-07 15:47 50.33367 -1.98414 35613 ft 425 kts 213°
2026-05-07 15:47 50.30886 -2.00922 35812 ft 426 kts 213°
2026-05-07 15:47 50.28399 -2.03434 36020 ft 426 kts 213°
2026-05-07 15:48 50.25907 -2.05950 36208 ft 426 kts 213°
2026-05-07 15:48 50.23411 -2.08454 36397 ft 427 kts 213°
2026-05-07 15:48 50.20892 -2.10919 36590 ft 427 kts 212°
2026-05-07 15:48 50.18371 -2.13362 36789 ft 427 kts 212°
2026-05-07 15:49 50.15847 -2.15808 36971 ft 427 kts 212°
2026-05-07 15:49 50.10793 -2.20711 37061 ft 428 kts 212°
2026-05-07 15:50 50.05744 -2.25604 37026 ft 427 kts 212°
2026-05-07 15:50 50.00694 -2.30486 37034 ft 427 kts 212°
2026-05-07 15:51 49.95688 -2.35314 37021 ft 427 kts 212°
2026-05-07 15:51 49.90401 -2.39556 37028 ft 428 kts 205°
2026-05-07 15:52 49.84968 -2.43330 37020 ft 428 kts 205°
2026-05-07 15:52 49.79535 -2.47106 37021 ft 428 kts 205°
2026-05-07 15:53 49.74102 -2.50886 37020 ft 428 kts 205°
2026-05-07 15:53 49.68672 -2.54653 37025 ft 428 kts 205°
2026-05-07 15:54 49.63236 -2.58419 36998 ft 428 kts 205°
2026-05-07 15:54 49.57803 -2.62174 36995 ft 428 kts 205°
2026-05-07 15:55 49.52370 -2.65917 36993 ft 428 kts 205°
2026-05-07 15:55 49.46931 -2.69657 36997 ft 428 kts 205°
2026-05-07 15:56 49.41493 -2.73385 36994 ft 428 kts 205°
2026-05-07 15:56 49.36055 -2.77106 36995 ft 428 kts 205°
2026-05-07 15:57 49.30609 -2.80820 36996 ft 428 kts 205°
2026-05-07 15:57 49.25166 -2.84525 36988 ft 428 kts 205°
2026-05-07 15:58 49.19749 -2.88198 36996 ft 428 kts 205°
2026-05-07 15:58 49.14301 -2.91885 36990 ft 428 kts 205°
2026-05-07 15:59 49.08855 -2.95569 36989 ft 428 kts 205°
2026-05-07 15:59 49.03406 -2.99243 36987 ft 428 kts 205°
2026-05-07 16:00 48.97954 -3.02912 36981 ft 428 kts 205°
2026-05-07 16:00 48.92510 -3.06566 36980 ft 428 kts 205°
2026-05-07 16:01 48.87060 -3.10218 36986 ft 428 kts 205°
2026-05-07 16:01 48.81616 -3.13854 36985 ft 427 kts 205°
2026-05-07 16:02 48.76173 -3.17476 36982 ft 427 kts 205°
2026-05-07 16:02 48.70726 -3.21097 36979 ft 427 kts 205°
2026-05-07 16:03 48.65286 -3.24701 36981 ft 427 kts 205°
2026-05-07 16:03 48.59845 -3.28297 36984 ft 427 kts 205°
2026-05-07 16:04 48.54400 -3.31895 36978 ft 427 kts 205°
2026-05-07 16:04 48.48959 -3.35476 36973 ft 427 kts 205°
2026-05-07 16:05 48.43516 -3.39051 36963 ft 427 kts 205°
2026-05-07 16:05 48.38064 -3.42626 36965 ft 427 kts 205°
2026-05-07 16:06 48.32611 -3.46187 36967 ft 427 kts 205°
2026-05-07 16:06 48.27158 -3.49744 36966 ft 428 kts 205°
2026-05-07 16:07 48.21701 -3.53296 36967 ft 428 kts 205°
2026-05-07 16:07 48.16235 -3.56846 36972 ft 428 kts 205°
2026-05-07 16:08 48.10773 -3.60384 36971 ft 428 kts 205°
2026-05-07 16:08 48.05306 -3.63914 36978 ft 428 kts 205°
2026-05-07 16:09 47.99828 -3.67446 36980 ft 429 kts 204°
2026-05-07 16:09 47.94388 -3.70945 36981 ft 429 kts 204°
2026-05-07 16:10 47.88870 -3.74484 36983 ft 429 kts 205°
2026-05-07 16:10 47.83424 -3.77972 36988 ft 429 kts 204°
2026-05-07 16:11 47.77904 -3.81499 36987 ft 429 kts 204°
2026-05-07 16:11 47.72446 -3.84975 36990 ft 430 kts 204°
2026-05-07 16:12 47.66942 -3.88474 36990 ft 430 kts 204°
2026-05-07 16:12 47.61442 -3.91966 36990 ft 430 kts 204°
2026-05-07 16:13 47.55930 -3.95454 36987 ft 431 kts 204°
2026-05-07 16:13 47.50420 -3.98932 36985 ft 431 kts 204°
2026-05-07 16:14 47.45828 -4.01826 36989 ft 431 kts 204°
2026-05-07 16:14 47.40304 -4.05299 36988 ft 432 kts 204°
2026-05-07 16:15 47.34771 -4.08770 36988 ft 432 kts 204°
2026-05-07 16:15 47.29237 -4.12234 36990 ft 433 kts 204°
2026-05-07 16:16 47.23693 -4.15696 36990 ft 433 kts 204°
2026-05-07 16:16 47.18151 -4.19149 36990 ft 433 kts 204°
2026-05-07 16:17 47.12599 -4.22599 36990 ft 433 kts 204°
2026-05-07 16:17 47.07042 -4.26044 36986 ft 434 kts 204°
2026-05-07 16:18 47.01399 -4.29213 36996 ft 434 kts 202°
2026-05-07 16:18 46.95739 -4.32314 36984 ft 435 kts 202°
2026-05-07 16:19 46.90069 -4.35417 36993 ft 435 kts 202°
2026-05-07 16:19 46.84397 -4.38516 36991 ft 435 kts 202°
2026-05-07 16:20 46.78721 -4.41611 36988 ft 436 kts 202°
2026-05-07 16:20 46.73037 -4.44701 36983 ft 436 kts 202°
2026-05-07 16:21 46.67386 -4.47767 36982 ft 436 kts 202°
2026-05-07 16:21 46.61698 -4.50847 36974 ft 437 kts 202°
2026-05-07 16:22 46.55997 -4.53928 36978 ft 437 kts 202°
2026-05-07 16:22 46.50292 -4.57001 36979 ft 437 kts 202°
2026-05-07 16:23 46.44582 -4.60073 36976 ft 438 kts 202°
2026-05-07 16:23 46.38869 -4.63139 36977 ft 438 kts 202°
2026-05-07 16:24 46.33153 -4.66200 36971 ft 438 kts 202°
2026-05-07 16:24 46.27431 -4.69256 36978 ft 439 kts 202°
2026-05-07 16:25 46.21702 -4.72309 36970 ft 439 kts 202°
2026-05-07 16:25 46.15969 -4.75358 36961 ft 439 kts 202°
2026-05-07 16:26 46.10234 -4.78400 36968 ft 439 kts 202°
2026-05-07 16:26 46.04489 -4.81442 36966 ft 440 kts 202°
2026-05-07 16:27 45.98746 -4.84477 36958 ft 440 kts 202°
2026-05-07 16:27 45.92995 -4.87509 36957 ft 440 kts 202°
2026-05-07 16:28 45.87246 -4.90535 36956 ft 440 kts 202°
2026-05-07 16:28 45.81493 -4.93554 36957 ft 440 kts 202°
2026-05-07 16:29 45.75734 -4.96567 36955 ft 441 kts 202°
2026-05-07 16:29 45.69973 -4.99579 36956 ft 441 kts 202°
2026-05-07 16:30 45.64207 -5.02587 36951 ft 441 kts 202°
2026-05-07 16:30 45.58442 -5.05584 36952 ft 441 kts 202°
2026-05-07 16:31 45.52667 -5.08581 36942 ft 442 kts 202°
2026-05-07 16:31 45.46929 -5.11553 36944 ft 442 kts 202°
2026-05-07 16:32 45.41151 -5.14539 36942 ft 442 kts 202°
2026-05-07 16:32 45.35371 -5.17520 36939 ft 442 kts 202°
2026-05-07 16:33 45.29588 -5.20495 36939 ft 442 kts 202°
2026-05-07 16:33 45.23801 -5.23467 36939 ft 442 kts 202°
2026-05-07 16:34 45.18018 -5.26429 36934 ft 442 kts 202°
2026-05-07 16:34 45.12230 -5.29389 36934 ft 442 kts 202°
2026-05-07 16:35 45.06433 -5.32344 36931 ft 443 kts 202°
2026-05-07 16:35 45.00639 -5.35292 36929 ft 442 kts 202°
2026-05-07 16:36 44.94845 -5.38236 36925 ft 442 kts 202°
2026-05-07 16:36 44.89055 -5.41172 36923 ft 443 kts 202°
2026-05-07 16:37 44.83255 -5.44106 36919 ft 443 kts 202°
2026-05-07 16:37 44.77455 -5.47030 36917 ft 443 kts 202°
2026-05-07 16:38 44.71653 -5.49950 36912 ft 443 kts 202°
2026-05-07 16:38 44.65851 -5.52866 36909 ft 443 kts 202°
2026-05-07 16:39 44.60081 -5.55869 36915 ft 442 kts 205°
2026-05-07 16:39 44.54493 -5.59315 36906 ft 442 kts 206°
2026-05-07 16:40 44.48879 -5.62794 36905 ft 441 kts 206°
2026-05-07 16:40 44.43257 -5.66262 36902 ft 441 kts 206°
2026-05-07 16:41 44.37631 -5.69721 36902 ft 441 kts 206°
2026-05-07 16:41 44.32011 -5.73172 36895 ft 441 kts 206°
2026-05-07 16:42 44.26393 -5.76613 36894 ft 441 kts 206°
2026-05-07 16:42 44.20769 -5.80051 36894 ft 441 kts 206°
2026-05-07 16:43 44.15137 -5.83489 36890 ft 445 kts 206°
2026-05-07 16:43 44.09439 -5.86957 36893 ft 444 kts 206°
2026-05-07 16:44 44.03804 -5.90379 36888 ft 441 kts 206°
2026-05-07 16:44 43.98179 -5.93792 36889 ft 441 kts 206°
2026-05-07 16:45 43.92557 -5.97194 36883 ft 441 kts 206°
2026-05-07 16:45 43.86928 -6.00593 36876 ft 441 kts 206°
2026-05-07 16:46 43.81311 -6.03972 36872 ft 441 kts 206°
2026-05-07 16:46 43.75685 -6.07354 36873 ft 441 kts 206°
2026-05-07 16:47 43.70055 -6.10733 36873 ft 441 kts 206°
2026-05-07 16:47 43.64432 -6.14101 36876 ft 441 kts 206°
2026-05-07 16:48 43.58799 -6.17466 36869 ft 441 kts 206°
2026-05-07 16:48 43.53150 -6.20834 36878 ft 447 kts 206°
2026-05-07 16:49 43.47440 -6.24234 36868 ft 453 kts 205°
2026-05-07 16:49 43.41641 -6.27678 36872 ft 455 kts 205°
2026-05-07 16:50 43.35811 -6.31133 36860 ft 457 kts 205°
2026-05-07 16:50 43.30018 -6.34553 36846 ft 444 kts 206°
2026-05-07 16:51 43.24378 -6.37878 36848 ft 440 kts 205°
2026-05-07 16:51 43.18763 -6.41194 36860 ft 439 kts 205°
2026-05-07 16:52 43.13140 -6.44501 36852 ft 440 kts 205°
2026-05-07 16:52 43.07523 -6.47794 36847 ft 440 kts 205°
2026-05-07 16:53 43.01899 -6.51089 36851 ft 440 kts 205°
2026-05-07 16:53 42.96284 -6.54365 36845 ft 439 kts 205°
2026-05-07 16:54 42.90667 -6.57642 36842 ft 439 kts 205°
2026-05-07 16:54 42.85057 -6.60907 36839 ft 438 kts 205°
2026-05-07 16:55 42.79456 -6.64160 36835 ft 438 kts 205°
2026-05-07 16:55 42.73852 -6.67408 36831 ft 437 kts 205°
2026-05-07 16:56 42.68248 -6.70649 36827 ft 437 kts 205°
2026-05-07 16:56 42.59858 -6.75494 36820 ft 436 kts 205°
2026-05-07 16:57 42.54271 -6.78711 36826 ft 436 kts 205°
2026-05-07 16:57 42.48685 -6.81921 36826 ft 436 kts 205°
2026-05-07 16:58 42.43100 -6.85123 36827 ft 436 kts 205°
2026-05-07 16:58 42.37523 -6.88314 36829 ft 435 kts 205°
2026-05-07 16:59 42.31940 -6.91504 36828 ft 435 kts 205°
2026-05-07 16:59 42.26358 -6.94687 36826 ft 435 kts 205°
2026-05-07 17:00 42.21724 -6.97324 36830 ft 435 kts 205°
2026-05-07 17:00 42.16143 -7.00494 36830 ft 435 kts 205°
2026-05-07 17:01 42.10568 -7.03656 36830 ft 435 kts 205°
2026-05-07 17:01 42.05203 -7.07347 36828 ft 433 kts 211°
2026-05-07 17:02 41.99953 -7.11319 36828 ft 433 kts 211°
2026-05-07 17:02 41.94693 -7.15265 36838 ft 433 kts 211°
2026-05-07 17:03 41.89438 -7.19188 36833 ft 433 kts 211°
2026-05-07 17:03 41.84181 -7.23105 36833 ft 432 kts 211°
2026-05-07 17:04 41.78922 -7.27016 36830 ft 432 kts 211°
2026-05-07 17:04 41.73663 -7.30920 36828 ft 432 kts 211°
2026-05-07 17:05 41.68406 -7.34813 36834 ft 432 kts 211°
2026-05-07 17:05 41.63143 -7.38697 36830 ft 432 kts 211°
2026-05-07 17:06 41.57885 -7.42571 36832 ft 432 kts 211°
2026-05-07 17:06 41.52626 -7.46445 36827 ft 431 kts 211°
2026-05-07 17:07 41.47372 -7.50309 36835 ft 432 kts 211°
2026-05-07 17:07 41.42120 -7.54165 36839 ft 431 kts 211°
2026-05-07 17:08 41.36868 -7.58012 36837 ft 431 kts 211°
2026-05-07 17:08 41.31616 -7.61852 36840 ft 431 kts 211°
2026-05-07 17:09 41.26364 -7.65683 36845 ft 430 kts 211°
2026-05-07 17:09 41.21110 -7.69510 36846 ft 430 kts 211°
2026-05-07 17:10 41.15864 -7.73322 36849 ft 430 kts 211°
2026-05-07 17:10 41.10617 -7.77129 36852 ft 429 kts 211°
2026-05-07 17:11 41.05375 -7.80926 36847 ft 429 kts 211°
2026-05-07 17:11 41.00136 -7.84713 36845 ft 429 kts 211°
2026-05-07 17:12 40.94889 -7.88490 36853 ft 429 kts 212°
2026-05-07 17:12 40.89653 -7.92262 36856 ft 428 kts 212°
2026-05-07 17:13 40.84429 -7.96012 36860 ft 428 kts 212°
2026-05-07 17:13 40.79203 -7.99764 36855 ft 427 kts 212°
2026-05-07 17:14 40.73982 -8.03506 36857 ft 427 kts 212°
2026-05-07 17:14 40.68768 -8.07231 36861 ft 426 kts 212°
2026-05-07 17:15 40.63553 -8.10957 36867 ft 426 kts 212°
2026-05-07 17:15 40.58351 -8.14668 36863 ft 425 kts 212°
2026-05-07 17:16 40.53152 -8.18369 36869 ft 425 kts 212°
2026-05-07 17:16 40.47985 -8.22032 36871 ft 424 kts 212°
2026-05-07 17:17 40.42758 -8.25740 36878 ft 424 kts 212°
2026-05-07 17:17 40.37623 -8.29372 36642 ft 419 kts 212°
2026-05-07 17:18 40.35054 -8.31188 36315 ft 420 kts 212°
2026-05-07 17:18 40.32484 -8.33003 36040 ft 420 kts 212°
2026-05-07 17:18 40.29913 -8.34814 35619 ft 419 kts 212°
2026-05-07 17:18 40.27351 -8.36621 35004 ft 418 kts 212°
2026-05-07 17:19 40.24788 -8.38427 34338 ft 419 kts 211°
2026-05-07 17:19 40.22216 -8.40237 33615 ft 419 kts 211°
2026-05-07 17:19 40.19650 -8.42039 32852 ft 419 kts 211°
2026-05-07 17:19 40.17084 -8.43842 32184 ft 418 kts 211°
2026-05-07 17:20 40.14526 -8.45637 31562 ft 417 kts 211°
2026-05-07 17:20 40.11976 -8.47423 30952 ft 415 kts 210°
2026-05-07 17:20 40.09436 -8.49200 30377 ft 413 kts 210°
2026-05-07 17:20 40.06910 -8.50961 29794 ft 411 kts 209°
2026-05-07 17:21 40.04292 -8.52439 29102 ft 411 kts 200°
2026-05-07 17:21 40.01506 -8.53252 28563 ft 408 kts 189°
2026-05-07 17:21 39.98676 -8.53345 28206 ft 407 kts 180°
2026-05-07 17:21 39.95855 -8.53107 27915 ft 405 kts 179°
2026-05-07 17:22 39.93048 -8.52836 27639 ft 404 kts 179°
2026-05-07 17:22 39.90257 -8.52581 27371 ft 398 kts 179°
2026-05-07 17:22 39.87524 -8.52344 27102 ft 395 kts 179°
2026-05-07 17:22 39.84764 -8.52111 26843 ft 403 kts 179°
2026-05-07 17:23 39.81949 -8.51878 26587 ft 406 kts 179°
2026-05-07 17:23 39.79142 -8.51646 26337 ft 404 kts 179°
2026-05-07 17:23 39.76350 -8.51741 26069 ft 399 kts 192°
2026-05-07 17:23 39.73753 -8.52868 25814 ft 393 kts 209°
2026-05-07 17:24 39.71417 -8.54671 25578 ft 390 kts 213°
2026-05-07 17:24 39.69128 -8.56563 25341 ft 389 kts 213°
2026-05-07 17:24 39.66840 -8.58430 25089 ft 388 kts 213°
2026-05-07 17:24 39.64543 -8.60265 24846 ft 387 kts 212°
2026-05-07 17:25 39.62249 -8.62075 24612 ft 386 kts 212°
2026-05-07 17:25 39.59957 -8.63875 24375 ft 384 kts 212°
2026-05-07 17:25 39.57670 -8.65673 24136 ft 383 kts 212°
2026-05-07 17:25 39.55393 -8.67458 23900 ft 382 kts 212°
2026-05-07 17:26 39.53119 -8.69233 23672 ft 381 kts 212°
2026-05-07 17:26 39.50853 -8.71005 23430 ft 380 kts 212°
2026-05-07 17:26 39.48593 -8.72776 23165 ft 379 kts 212°
2026-05-07 17:26 39.46342 -8.74542 22899 ft 377 kts 212°
2026-05-07 17:27 39.44104 -8.76297 22637 ft 376 kts 212°
2026-05-07 17:27 39.41868 -8.78045 22356 ft 374 kts 212°
2026-05-07 17:27 39.39717 -8.79917 22084 ft 372 kts 221°
2026-05-07 17:27 39.37915 -8.82305 21823 ft 371 kts 228°
2026-05-07 17:28 39.36225 -8.84810 21561 ft 369 kts 229°
2026-05-07 17:28 39.34545 -8.87313 21310 ft 368 kts 229°
2026-05-07 17:28 39.32869 -8.89798 21054 ft 367 kts 229°
2026-05-07 17:28 39.31187 -8.92279 20796 ft 366 kts 228°
2026-05-07 17:29 39.29511 -8.94744 20546 ft 365 kts 228°
2026-05-07 17:29 39.27833 -8.97203 20293 ft 364 kts 228°
2026-05-07 17:29 39.26160 -8.99654 20045 ft 363 kts 228°
2026-05-07 17:29 39.24498 -9.02089 19795 ft 358 kts 228°
2026-05-07 17:30 39.22823 -9.04541 19545 ft 367 kts 228°
2026-05-07 17:30 39.21138 -9.07002 19304 ft 366 kts 228°
2026-05-07 17:30 39.19451 -9.09462 19062 ft 365 kts 227°
2026-05-07 17:30 39.17773 -9.11909 18822 ft 364 kts 227°
2026-05-07 17:31 39.16101 -9.14349 18593 ft 363 kts 227°
2026-05-07 17:31 39.14429 -9.16786 18354 ft 362 kts 227°
2026-05-07 17:31 39.12765 -9.19207 18112 ft 362 kts 227°
2026-05-07 17:31 39.11101 -9.21627 17836 ft 360 kts 227°
2026-05-07 17:32 39.09746 -9.23431 17462 ft 351 kts 220°
2026-05-07 17:32 39.07718 -9.25139 16642 ft 349 kts 207°
2026-05-07 17:32 39.05550 -9.26493 16039 ft 342 kts 205°
2026-05-07 17:32 39.04137 -9.27353 15733 ft 336 kts 205°
2026-05-07 17:33 39.01348 -9.29075 15181 ft 329 kts 206°
2026-05-07 17:33 38.99303 -9.30354 14798 ft 324 kts 206°
2026-05-07 17:33 38.97318 -9.31604 14506 ft 311 kts 206°
2026-05-07 17:33 38.95424 -9.32795 14294 ft 296 kts 206°
2026-05-07 17:34 38.93607 -9.33939 14035 ft 285 kts 206°
2026-05-07 17:34 38.91857 -9.35043 13751 ft 276 kts 206°
2026-05-07 17:34 38.90164 -9.36111 13428 ft 267 kts 206°
2026-05-07 17:34 38.88512 -9.37153 13066 ft 263 kts 206°
2026-05-07 17:35 38.86889 -9.38175 12721 ft 258 kts 206°
2026-05-07 17:35 38.85296 -9.39177 12377 ft 251 kts 206°
2026-05-07 17:35 38.83707 -9.40069 12088 ft 251 kts 196°
2026-05-07 17:35 38.81975 -9.40327 11833 ft 251 kts 184°
2026-05-07 17:36 38.80220 -9.40531 11583 ft 252 kts 184°
2026-05-07 17:36 38.78495 -9.40298 11320 ft 247 kts 167°
2026-05-07 17:36 38.76888 -9.39662 10838 ft 245 kts 163°
2026-05-07 17:36 38.75267 -9.38969 10278 ft 246 kts 163°
2026-05-07 17:37 38.73644 -9.38283 9740 ft 245 kts 163°
2026-05-07 17:37 38.72025 -9.37609 9177 ft 244 kts 164°
2026-05-07 17:37 38.70398 -9.37029 8594 ft 242 kts 173°
2026-05-07 17:37 38.68725 -9.36850 8088 ft 240 kts 178°
2026-05-07 17:38 38.67066 -9.36754 7588 ft 237 kts 179°
2026-05-07 17:38 38.65426 -9.36668 7139 ft 235 kts 179°
2026-05-07 17:38 38.63807 -9.36583 6694 ft 232 kts 179°
2026-05-07 17:38 38.62195 -9.36498 6183 ft 232 kts 179°
2026-05-07 17:39 38.60625 -9.36035 5607 ft 236 kts 155°
2026-05-07 17:39 38.59268 -9.34855 5053 ft 239 kts 135°
2026-05-07 17:39 38.58425 -9.33048 4521 ft 240 kts 105°
2026-05-07 17:39 38.58324 -9.30930 4091 ft 237 kts 81°
2026-05-07 17:40 38.58587 -9.28847 3969 ft 232 kts 78°
2026-05-07 17:40 38.58836 -9.26920 3954 ft 207 kts 78°
2026-05-07 17:40 38.59060 -9.25201 4063 ft 185 kts 76°
2026-05-07 17:40 38.59565 -9.23761 4040 ft 175 kts 47°
2026-05-07 17:41 38.60540 -9.22897 3890 ft 170 kts 21°
2026-05-07 17:41 38.61637 -9.22384 3666 ft 168 kts 17°
2026-05-07 17:41 38.62708 -9.21824 3432 ft 165 kts 18°
2026-05-07 17:41 38.63766 -9.21263 3183 ft 163 kts 17°
2026-05-07 17:42 38.64811 -9.20707 2931 ft 162 kts 18°
2026-05-07 17:42 38.65850 -9.20153 2703 ft 161 kts 16°
2026-05-07 17:42 38.66874 -9.19607 2480 ft 160 kts 18°
2026-05-07 17:42 38.67904 -9.19056 2247 ft 160 kts 17°
2026-05-07 17:43 38.68922 -9.18512 2015 ft 158 kts 17°
2026-05-07 17:43 38.69937 -9.17970 1803 ft 158 kts 17°
2026-05-07 17:43 38.70958 -9.17424 1591 ft 158 kts 16°
2026-05-07 17:43 38.71935 -9.16900 1374 ft 148 kts 16°
2026-05-07 17:44 38.72877 -9.16395 1179 ft 141 kts 17°
2026-05-07 17:44 38.73461 -9.16082 1058 ft 133 kts 16°
2026-05-07 17:44 38.74598 -9.15475 813 ft 135 kts 19°
2026-05-07 17:44 38.75179 -9.15164 697 ft 133 kts 16°
2026-05-07 17:45 38.76025 -9.14715 536 ft 135 kts 17°
2026-05-07 17:45 38.76886 -9.14254 363 ft 132 kts 15°
2026-05-07 17:45 38.77593 -9.13880 373 ft 89 kts 23°
2026-05-07 17:45 38.78076 -9.13622 374 ft 46 kts 22°
2026-05-07 17:46 38.78317 -9.13485 372 ft 31 kts 36°
2026-05-07 17:46 38.78356 -9.13425 369 ft 9 kts 74°
2026-05-07 17:46 38.78375 -9.13341 369 ft 11 kts 74°
2026-05-07 17:46 38.78341 -9.13265 365 ft 12 kts 171°
2026-05-07 17:47 38.78278 -9.13291 367 ft 9 kts 202°
2026-05-07 17:47 38.78215 -9.13323 364 ft 11 kts 201°
2026-05-07 17:47 38.78138 -9.13361 367 ft 13 kts 201°
2026-05-07 17:47 38.78048 -9.13406 364 ft 15 kts 201°
2026-05-07 17:48 38.77947 -9.13462 364 ft 17 kts 203°
2026-05-07 17:48 38.77836 -9.13522 361 ft 18 kts 202°
2026-05-07 17:48 38.77719 -9.13584 362 ft 15 kts 202°
2026-05-07 17:48 38.77610 -9.13583 362 ft 17 kts 169°
2026-05-07 17:49 38.77497 -9.13556 358 ft 18 kts 169°
2026-05-07 17:49 38.77369 -9.13521 357 ft 20 kts 168°
2026-05-07 17:49 38.77229 -9.13483 352 ft 21 kts 168°
2026-05-07 17:49 38.77081 -9.13444 353 ft 22 kts 167°
2026-05-07 17:50 38.76926 -9.13402 349 ft 23 kts 169°
2026-05-07 17:50 38.76807 -9.13370 348 ft 16 kts 168°
2026-05-07 17:50 38.76700 -9.13421 357 ft 18 kts 214°
2026-05-07 17:50 38.76642 -9.13558 358 ft 19 kts 258°
2026-05-07 17:51 38.76617 -9.13664 354 ft 11 kts 206°
2026-05-07 17:51 38.76547 -9.13678 360 ft 10 kts 242°
2026-05-07 17:51 38.76538 -9.13753 356 ft 4 kts 258°
2026-05-07 17:51 38.76531 -9.13794 356 ft 5 kts 252°
2026-05-07 17:52 38.76495 -9.13794 353 ft 6 kts 162°
2026-05-07 17:52 38.76460 -9.13782 353 ft 5 kts 168°
2026-05-07 17:52 38.76452 -9.13780 356 ft 0 kts 168°